[[{"header":{"parameterUnit":"m.s-1","parameterCategory":1,"la1":30.2991,"la2":30.254,"lo1":-89.0895,"lo2":-89.0444,"dy":0.0017,"dx":0.0017,"nx":28,"ny":28,"refTime":"2023-07-21T21:00:00:Z","depth":0,"parameterNumber":2,"parameterNumberName":"U-component_of_WINDS"},"data":[0,0,0,0,0,0,0,0,0,0,0,0,0,0,0,0,0,0,0,0,0,0,0,0,0,0,0,0,0,0,0,0,0,0,0,0,0,0,0,0,0,0,0,0,0,0,0,0,0,0,0,0,0,0,0,0,0,0,2.2614,2.2614,0,2.2643,2.2644,2.2644,2.2659,2.2659,2.2659,2.2659,2.269,2.2691,2.2692,0,0,0,0,0,0,0,0,0,0,0,0,0,2.2573,2.2573,2.2614,2.2614,2.2615,2.2643,2.2644,2.2644,2.2659,2.2659,2.2659,2.2659,2.269,2.2691,2.2692,0,0,0,0,0,0,0,0,0,0,0,0,0,2.2595,2.2574,2.2614,2.2626,2.2627,2.2643,2.2644,2.2644,2.2659,2.2659,2.2659,2.2659,2.2689,2.2691,2.2692,2.2698,0,0,2.2695,2.2696,0,0,0,0,0,0,0,0,2.2594,2.2597,2.2624,2.2625,2.2626,2.2648,2.264,2.2662,2.2659,2.2647,2.2659,2.2659,2.2676,2.2678,2.2684,2.27,2.2701,2.2695,2.2696,2.2697,2.2697,0,0,0,0,0,0,0,2.2592,2.2596,2.2626,2.2624,2.2626,2.263,2.2633,2.2645,2.2661,2.2648,2.2649,2.2653,2.2677,2.2682,2.2684,2.2702,2.2695,2.2696,2.2697,2.2698,2.2726,2.2726,0,0,0,0,0,0,2.2589,2.2594,2.2625,2.2626,2.261,2.2631,2.2634,2.2641,2.2661,2.2664,2.2652,2.2653,2.268,2.2683,2.2686,2.2696,2.2697,2.2698,2.2698,2.2726,2.2726,2.2727,0,0,0,0,0,0,2.2588,2.2591,2.2623,2.2611,2.2615,2.2631,2.2639,2.2641,2.2647,2.2664,2.2667,2.2655,2.2681,2.2684,2.2695,2.2697,2.2698,2.2699,2.2726,2.2726,2.2726,2.2715,0,0,0,0,0,0,2.2586,2.2591,2.2593,2.2611,2.2616,2.2632,2.2639,2.2642,2.2649,2.265,2.2668,2.267,2.2681,2.2694,2.2697,2.2699,2.27,2.2726,2.2726,2.2726,2.2716,2.2715,2.2715,0,0,0,0,0,2.2585,2.2589,2.2593,2.2597,2.2619,2.2632,2.2635,2.2647,2.2649,2.2652,2.2663,2.267,2.2696,2.2695,2.2698,2.2701,2.2726,2.2726,2.2726,2.2716,2.2715,2.2715,0,0,0,0,0,0,2.2571,2.2591,2.2596,2.2605,2.2617,2.2635,2.2638,2.2645,2.2657,2.2657,2.2671,2.2675,2.2686,2.2694,2.2692,2.2709,2.2712,2.2713,2.2703,2.2702,2.2702,2.27,2.2701,0,0,0,0,0,2.2569,2.2577,2.2595,2.2601,2.2607,2.2622,2.2628,2.2636,2.2649,2.2654,2.2666,2.2678,2.2689,2.2696,2.2707,2.2717,2.2722,2.2721,2.272,2.272,2.272,2.2727,2.2727,2.2727,2.2727,2.2727,0,0,2.2564,2.2577,2.2581,2.2599,2.2609,2.2618,2.2626,2.2635,2.2643,2.2655,2.2667,2.2676,2.2691,2.2702,2.2707,2.271,2.2722,2.272,2.2719,2.272,2.2728,2.2728,2.2728,2.2727,2.2727,2.2727,0,0,2.2562,2.2571,2.2579,2.2589,2.2604,2.2614,2.2615,2.2632,2.2639,2.2651,2.2661,2.2671,2.2689,2.27,2.2707,2.271,2.2718,2.2714,2.2711,2.2718,2.2718,2.2718,2.272,2.272,2.2714,2.2714,2.2714,0,2.2554,2.2569,2.2581,2.2591,2.2599,2.2611,2.2619,2.2628,2.2646,2.2651,2.2653,2.2678,2.2688,2.2703,2.2704,2.2709,2.2712,2.2712,2.2716,2.2717,2.2717,2.2719,2.272,2.2714,2.2714,2.2714,2.2714,0,2.256,2.257,2.2574,2.2591,2.26,2.2608,2.2623,2.263,2.2638,2.2648,2.2661,2.2674,2.2689,2.2693,2.27,2.2708,2.2709,2.2714,2.2717,2.2716,2.2719,2.272,2.2713,2.2713,2.2713,2.2713,0,0,2.2548,2.2573,2.2575,2.2583,2.2601,2.261,2.2619,2.2634,2.264,2.2652,2.2661,2.2678,2.2682,2.2691,2.27,2.2706,2.2709,2.271,2.271,2.271,2.272,2.2717,2.2718,2.2714,2.2714,2.2714,2.2719,0,2.2549,2.2566,2.2578,2.2591,2.2602,2.2614,2.2622,2.2635,2.2645,2.2655,2.2666,2.2678,2.2683,2.2688,2.2695,2.2707,2.2711,2.2707,2.2723,2.2723,2.2719,2.2719,2.2715,2.272,2.272,2.272,2.272,0,2.2551,2.2564,2.2578,2.2596,2.2601,2.2608,2.2623,2.2633,2.2648,2.2655,2.2665,2.2675,2.2686,2.2689,2.2706,2.2702,2.271,2.2717,2.2717,2.272,2.2722,2.2722,2.2721,2.2722,2.2722,2.2722,2.2722,0,2.2543,2.2563,2.2574,2.2581,2.2602,2.2608,2.2617,2.2632,2.264,2.2653,2.2659,2.2674,2.2682,2.2693,2.2706,2.2707,2.2722,2.2726,2.2729,2.2729,2.2732,2.2732,2.2733,2.2736,2.2736,2.2736,2.2736,0,2.2542,2.2551,2.2571,2.2578,2.2588,2.2602,2.2612,2.2622,2.2636,2.2646,2.2657,2.2666,2.2683,2.2695,2.2705,2.2718,2.2722,2.2728,2.2731,2.2728,2.2727,2.2733,2.2733,2.2736,2.2736,2.2736,2.2736,0,2.2534,2.2548,2.2561,2.2581,2.2586,2.2593,2.261,2.2617,2.2628,2.2641,2.2645,2.2662,2.2676,2.2691,2.271,2.2717,2.273,2.2734,2.2725,2.2727,2.273,2.273,2.2736,2.2738,2.2738,2.2738,2.2738,0,2.2533,2.254,2.256,2.2568,2.2577,2.2589,2.2597,2.2612,2.2621,2.2639,2.2645,2.266,2.2673,2.2696,2.271,2.2725,2.273,2.2731,2.2732,2.2729,2.2731,2.273,2.2732,2.273,2.273,2.273,2.273,0,2.253,2.2537,2.2549,2.2564,2.2574,2.2587,2.26,2.2605,2.2623,2.2632,2.2647,2.2657,2.2677,2.2692,2.271,2.272,2.2728,2.273,2.2732,2.2728,2.2723,2.2727,2.2724,2.273,2.273,2.273,2.273,2.273,2.2526,2.2533,2.2549,2.2563,2.2574,2.2586,2.2595,2.2607,2.262,2.2637,2.2645,2.266,2.2677,2.2701,2.2711,2.2723,2.2726,2.2728,2.2729,2.2729,2.2729,2.2721,2.2726,2.2726,2.2727,2.2727,2.2727,0,2.2524,2.2535,2.2548,2.2566,2.2577,2.2584,2.2599,2.2608,2.2621,2.2635,2.2648,2.2666,2.2681,2.2697,2.2714,2.2721,2.2725,2.2725,2.2725,2.2727,2.2725,2.2723,2.2721,2.2721,2.2721,2.2721,2.2721,2.2721,2.2525,2.2538,2.2547,2.2566,2.2577,2.2592,2.26,2.2612,2.2623,2.2643,2.2655,2.2666,2.2681,2.2699,2.2714,2.2719,2.2724,2.2723,2.2729,2.2727,2.2727,2.2727,2.2725,2.2724,2.2724,2.2729,2.2729,2.273]},{"header":{"parameterUnit":"m.s-1","parameterCategory":1,"la1":30.2991,"la2":30.254,"lo1":-89.0895,"lo2":-89.0444,"dy":0.0017,"dx":0.0017,"nx":28,"ny":28,"refTime":"2023-07-21T21:00:00:Z","depth":0,"parameterNumber":3,"parameterNumberName":"V-component_of_WINDS"},"data":[0,0,0,0,0,0,0,0,0,0,0,0,0,0,0,0,0,0,0,0,0,0,0,0,0,0,0,0,0,0,0,0,0,0,0,0,0,0,0,0,0,0,0,0,0,0,0,0,0,0,0,0,0,0,0,0,0,0,-0.1568,-0.1568,0,-0.1552,-0.1552,-0.1552,-0.1524,-0.1523,-0.1523,-0.1522,-0.1506,-0.1507,-0.1507,0,0,0,0,0,0,0,0,0,0,0,0,0,-0.1576,-0.1576,-0.1568,-0.1568,-0.1567,-0.1552,-0.1552,-0.1551,-0.1524,-0.1523,-0.1523,-0.1522,-0.1506,-0.1507,-0.1507,0,0,0,0,0,0,0,0,0,0,0,0,0,-0.1567,-0.1576,-0.1568,-0.1552,-0.155,-0.1552,-0.1552,-0.1551,-0.1524,-0.1523,-0.1522,-0.1522,-0.1506,-0.1507,-0.1507,-0.1523,0,0,-0.1507,-0.1507,0,0,0,0,0,0,0,0,-0.1568,-0.1567,-0.1554,-0.1553,-0.1551,-0.1539,-0.1549,-0.1542,-0.1524,-0.1534,-0.1522,-0.1521,-0.1518,-0.1517,-0.1516,-0.1522,-0.1522,-0.1507,-0.1507,-0.1507,-0.1507,0,0,0,0,0,0,0,-0.1568,-0.1568,-0.1561,-0.1554,-0.1552,-0.1546,-0.1544,-0.1547,-0.1531,-0.1533,-0.1531,-0.1529,-0.1517,-0.1516,-0.1515,-0.1521,-0.1507,-0.1507,-0.1507,-0.1507,-0.1543,-0.1544,0,0,0,0,0,0,-0.1571,-0.1568,-0.1562,-0.1561,-0.1558,-0.1546,-0.1544,-0.1544,-0.153,-0.1528,-0.153,-0.1528,-0.1516,-0.1515,-0.1515,-0.1535,-0.1507,-0.1507,-0.1507,-0.1542,-0.1543,-0.1544,0,0,0,0,0,0,-0.1571,-0.1571,-0.1563,-0.1564,-0.1562,-0.1547,-0.1547,-0.1544,-0.1543,-0.1528,-0.1525,-0.1532,-0.1515,-0.1514,-0.1522,-0.1534,-0.1507,-0.1507,-0.1541,-0.1542,-0.1544,-0.1574,0,0,0,0,0,0,-0.1572,-0.1571,-0.1577,-0.1564,-0.1563,-0.157,-0.1548,-0.1544,-0.1543,-0.154,-0.1529,-0.1527,-0.1515,-0.1522,-0.1522,-0.1533,-0.1507,-0.154,-0.1542,-0.1543,-0.1572,-0.1576,-0.158,0,0,0,0,0,-0.1572,-0.1585,-0.1577,-0.1577,-0.1569,-0.157,-0.1569,-0.1555,-0.1544,-0.155,-0.1541,-0.1527,-0.1532,-0.1523,-0.1522,-0.1534,-0.1539,-0.1541,-0.1543,-0.157,-0.1575,-0.158,0,0,0,0,0,0,-0.1599,-0.1583,-0.1574,-0.1584,-0.1579,-0.1565,-0.1572,-0.1561,-0.1559,-0.1556,-0.1539,-0.1537,-0.1547,-0.1541,-0.1531,-0.1551,-0.1534,-0.1536,-0.1554,-0.1559,-0.1563,-0.1565,-0.1507,0,0,0,0,0,-0.1606,-0.1608,-0.1594,-0.1604,-0.1602,-0.1588,-0.1588,-0.1578,-0.1572,-0.1569,-0.1561,-0.1556,-0.1556,-0.1557,-0.1557,-0.1571,-0.1569,-0.1579,-0.1583,-0.1586,-0.1589,-0.1598,-0.1602,-0.1551,-0.1551,-0.1551,0,0,-0.1621,-0.1613,-0.1615,-0.161,-0.1604,-0.1608,-0.1586,-0.159,-0.1592,-0.157,-0.1577,-0.157,-0.1564,-0.1575,-0.1579,-0.157,-0.1603,-0.1589,-0.1592,-0.1592,-0.16,-0.1605,-0.161,-0.1552,-0.1552,-0.1551,0,0,-0.165,-0.1643,-0.1651,-0.1647,-0.164,-0.163,-0.1633,-0.1622,-0.1617,-0.1623,-0.1607,-0.161,-0.1611,-0.1607,-0.1606,-0.1635,-0.1623,-0.1636,-0.1657,-0.1666,-0.167,-0.1674,-0.1686,-0.169,-0.1638,-0.1638,-0.1638,0,-0.1669,-0.1673,-0.1657,-0.1663,-0.1662,-0.1642,-0.1651,-0.1647,-0.164,-0.164,-0.163,-0.1633,-0.1626,-0.1638,-0.1645,-0.1644,-0.1647,-0.1637,-0.1671,-0.1674,-0.1677,-0.1689,-0.1693,-0.1639,-0.1639,-0.1639,-0.1639,0,-0.1698,-0.1701,-0.1709,-0.1703,-0.1703,-0.171,-0.1696,-0.1698,-0.1688,-0.168,-0.1688,-0.168,-0.1679,-0.1681,-0.1671,-0.1691,-0.1686,-0.1674,-0.1656,-0.1684,-0.1695,-0.1699,-0.1642,-0.1641,-0.1641,-0.164,0,0,-0.1743,-0.173,-0.1733,-0.1731,-0.1722,-0.1725,-0.1732,-0.1731,-0.1733,-0.1729,-0.1736,-0.1738,-0.1727,-0.1725,-0.1715,-0.1722,-0.1749,-0.1709,-0.1709,-0.1718,-0.1773,-0.1784,-0.1789,-0.174,-0.1741,-0.1742,-0.1774,0,-0.1771,-0.1782,-0.1769,-0.1783,-0.1787,-0.1769,-0.1775,-0.1771,-0.1764,-0.1767,-0.1759,-0.1762,-0.1746,-0.1745,-0.1752,-0.1744,-0.176,-0.1741,-0.1748,-0.1748,-0.1751,-0.1794,-0.1805,-0.1836,-0.1778,-0.1779,-0.1779,0,-0.1805,-0.1804,-0.1819,-0.1811,-0.1812,-0.1818,-0.1817,-0.1819,-0.1814,-0.1809,-0.1808,-0.1796,-0.1803,-0.1786,-0.1797,-0.1785,-0.1786,-0.1783,-0.1784,-0.1785,-0.1766,-0.1798,-0.1846,-0.1851,-0.1786,-0.1785,-0.1785,0,-0.1839,-0.184,-0.185,-0.1849,-0.1839,-0.1844,-0.1841,-0.1835,-0.1836,-0.1835,-0.1836,-0.1836,-0.1837,-0.1837,-0.1826,-0.1814,-0.1839,-0.182,-0.1836,-0.1837,-0.1843,-0.1843,-0.1893,-0.1842,-0.1842,-0.1842,-0.1842,0,-0.1872,-0.1882,-0.1865,-0.1872,-0.1883,-0.1868,-0.188,-0.1875,-0.1871,-0.1876,-0.186,-0.1866,-0.1849,-0.1854,-0.1845,-0.1857,-0.1856,-0.1853,-0.1851,-0.1855,-0.1856,-0.1857,-0.1855,-0.1843,-0.1843,-0.1842,-0.1842,0,-0.1912,-0.1901,-0.191,-0.1901,-0.1899,-0.1908,-0.1901,-0.1907,-0.1899,-0.1906,-0.1907,-0.1895,-0.19,-0.1888,-0.1891,-0.1885,-0.1902,-0.1896,-0.1904,-0.1903,-0.192,-0.1919,-0.1974,-0.1981,-0.1923,-0.1924,-0.1924,0,-0.1934,-0.1942,-0.1934,-0.1937,-0.1934,-0.1938,-0.194,-0.1926,-0.1928,-0.1925,-0.1931,-0.1934,-0.1936,-0.1944,-0.1936,-0.1939,-0.1933,-0.1952,-0.1933,-0.1938,-0.1936,-0.1936,-0.1938,-0.1956,-0.1957,-0.1958,-0.1958,0,-0.1977,-0.1971,-0.1974,-0.1975,-0.1977,-0.1977,-0.1976,-0.1979,-0.1964,-0.1968,-0.1972,-0.1974,-0.1977,-0.1981,-0.1982,-0.1979,-0.1967,-0.1964,-0.1968,-0.1974,-0.1979,-0.1978,-0.1916,-0.1963,-0.1963,-0.1962,-0.1962,-0.1962,-0.201,-0.2017,-0.2013,-0.2016,-0.2014,-0.2014,-0.202,-0.2014,-0.2017,-0.2019,-0.201,-0.2017,-0.2014,-0.2014,-0.2013,-0.2019,-0.201,-0.2015,-0.2017,-0.2019,-0.2023,-0.1977,-0.2018,-0.2018,-0.2018,-0.2018,-0.2018,0,-0.2053,-0.205,-0.2053,-0.2053,-0.2056,-0.2045,-0.2043,-0.2047,-0.2053,-0.2052,-0.2054,-0.206,-0.2065,-0.2058,-0.2061,-0.2067,-0.2062,-0.2069,-0.2069,-0.2069,-0.2029,-0.2026,-0.2073,-0.2073,-0.2073,-0.2073,-0.2073,-0.2073,-0.2076,-0.2087,-0.2082,-0.2093,-0.209,-0.2097,-0.2097,-0.2098,-0.2096,-0.2104,-0.2108,-0.2103,-0.21,-0.2103,-0.2107,-0.2105,-0.2107,-0.2116,-0.2113,-0.2076,-0.2071,-0.2066,-0.2063,-0.2117,-0.2117,-0.2152,-0.2152,-0.2152]}]]